FW3585 Weather Reports


Display with metric or nautical units.
time (UTC)temp
F
wind
direction
speed
MPH
gust
MPH
rain 1hr
in
rain 24hr
in
rain mn
in
humidity
%
barometer
mb
20260906040031 72 76 0.0 0.0 0.00 0.00 0.00 86 1012.5
20260906034529 73 76 0.0 2.0 0.00 0.00 0.00 86 1012.4
20260906033029 74 76 0.0 1.0 0.00 0.00 0.00 84 1012.5
20260906031529 74 76 0.0 3.0 0.00 0.00 0.00 83 1012.3
20260906030029 74 76 0.0 2.0 0.00 0.00 0.00 82 1012.2
20260906024527 75 146 0.0 0.0 0.00 0.00 0.00 81 1012.2
20260906023028 76 146 1.0 3.0 0.00 0.00 0.00 80 1011.9
20260906021527 76 105 1.0 3.0 0.00 0.00 0.00 79 1012.0
20260906020026 76 103 0.0 4.0 0.00 0.00 0.00 78 1011.8
20260906014527 76 123 0.0 2.0 0.00 0.00 0.00 78 1011.7
20260906013031 77 122 1.0 4.0 0.00 0.00 0.00 77 1011.6
20260906011525 77 157 2.0 8.0 0.00 0.00 0.00 76 1011.1
20260906010024 78 127 1.0 9.0 0.00 0.00 0.00 75 1011.0
20260906004523 78 93 2.0 8.0 0.00 0.00 0.00 74 1011.0
20260906003023 79 123 2.0 6.0 0.00 0.00 0.00 73 1010.8
20260906001523 79 157 2.0 6.0 0.00 0.00 0.00 71 1010.6
20260906000037 80 145 3.0 7.0 0.00 0.00 0.00 70 1010.5
20260905234521 81 129 0.0 4.0 0.00 0.00 0.00 70 1010.2
20260905233021 82 101 2.0 6.0 0.00 0.00 0.00 69 1010.2
20260905231521 82 103 3.0 9.0 0.00 0.00 0.00 68 1010.4
20260905230020 83 138 4.0 8.0 0.00 0.00 0.00 67 1010.3
20260905224520 84 92 2.0 11.0 0.00 0.00 0.00 66 1010.5
20260905223019 84 102 3.0 9.0 0.00 0.00 0.00 65 1010.3
20260905221519 85 125 2.0 12.0 0.00 0.00 0.00 65 1010.2
20260905220019 86 102 5.0 10.0 0.00 0.00 0.00 64 1010.1
20260905214519 88 249 0.0 5.0 0.00 0.00 0.00 54 1010.0
20260905213017 88 350 2.0 8.0 0.00 0.00 0.00 55 1009.8
20260905211515 87 302 0.0 2.0 0.00 0.00 0.00 59 1009.7
20260905210016 87 36 1.0 5.0 0.00 0.00 0.00 61 1009.8
20260905204515 87 312 3.0 8.0 0.00 0.00 0.00 59 1009.7
20260905203013 87 159 0.0 5.0 0.00 0.00 0.00 62 1009.8
20260905201513 85 28 2.0 4.0 0.00 0.00 0.00 66 1009.7
20260905200017 86 132 0.0 5.0 0.00 0.00 0.00 65 1009.7
20260905194508 85 312 1.0 6.0 0.00 0.00 0.00 70 1009.8
20260905193009 85 76 1.0 4.0 0.00 0.00 0.00 71 1010.0
20260905191506 84 5 2.0 7.0 0.00 0.00 0.00 73 1010.3
20260905190004 83 48 3.0 8.0 0.00 0.00 0.00 74 1010.5
20260905184505 83 74 2.0 6.0 0.00 0.00 0.00 73 1010.6
20260905183005 84 29 3.0 7.0 0.00 0.00 0.00 72 1010.9
20260905181500 84 70 4.0 8.0 0.00 0.00 0.00 72 1011.1
20260905180100 85 99 1.0 7.0 0.00 0.00 0.00 70 1011.0
20260905174600 85 231 1.0 8.0 0.00 0.00 0.00 69 1010.9
20260905173110 84 142 7.0 11.0 0.00 0.00 0.00 69 1011.0
20260905171605 86 350 0.0 6.0 0.00 0.00 0.00 67 1011.1
20260905170055 85 26 1.0 5.0 0.00 0.00 0.00 68 1011.5
20260905164554 85 348 4.0 12.0 0.00 0.00 0.00 62 1011.9
20260905163052 84 355 8.0 14.0 0.00 0.00 0.00 64 1012.3
20260905161550 83 338 2.0 9.0 0.00 0.00 0.00 68 1012.2
20260905160149 83 340 4.0 10.0 0.00 0.00 0.00 70 1011.8
20260905154609 83 329 5.0 15.0 0.00 0.00 0.00 71 1012.3
20260905153048 83 343 5.0 10.0 0.00 0.00 0.00 72 1012.3
20260905151546 83 13 6.0 12.0 0.00 0.00 0.00 73 1012.6
20260905150046 83 27 4.0 9.0 0.00 0.00 0.00 74 1012.5
20260905144544 84 49 4.0 8.0 0.00 0.00 0.00 70 1012.3
20260905143044 85 74 1.0 5.0 0.00 0.00 0.00 67 1012.1
20260905141541 84 342 0.0 5.0 0.00 0.00 0.00 69 1011.9
20260905140045 83 333 1.0 5.0 0.00 0.00 0.00 70 1011.9
20260905134537 82 355 1.0 4.0 0.00 0.00 0.00 74 1011.6
20260905133041 81 350 0.0 0.0 0.00 0.00 0.00 76 1011.6
20260905131529 79 355 0.0 0.0 0.00 0.00 0.00 77 1011.3
20260905130026 78 355 0.0 0.0 0.00 0.00 0.00 78 1011.3
20260905124522 77 355 0.0 0.0 0.00 0.00 0.00 79 1011.4
20260905123018 76 355 0.0 0.0 0.00 0.00 0.00 81 1011.4
20260905121515 73 355 0.0 0.0 0.00 0.00 0.00 85 1011.4
20260905120015 72 355 0.0 0.0 0.00 0.00 0.00 85 1011.4
20260905114508 71 355 0.0 0.0 0.00 0.00 0.00 87 1011.3
20260905113004 70 9 0.0 0.0 0.00 0.00 0.00 88 1011.2
20260905111501 71 5 0.0 0.0 0.00 0.00 0.00 86 1011.3
20260905110058 71 9 0.0 0.0 0.00 0.00 0.00 85 1011.2
20260905104604 71 9 0.0 0.0 0.00 0.00 0.00 85 1011.2
20260905103056 72 348 0.0 0.0 0.00 0.00 0.00 85 1010.9
20260905101603 72 348 0.0 0.0 0.00 0.00 0.00 85 1010.9
20260905100053 73 348 0.0 0.0 0.00 0.00 0.00 84 1011.0
20260905094552 73 347 0.0 1.0 0.00 0.00 0.00 84 1011.1
20260905093055 73 347 0.0 2.0 0.00 0.00 0.00 84 1010.8
20260905091551 73 346 1.0 3.0 0.00 0.00 0.00 84 1010.9
20260905090050 74 346 0.0 0.0 0.00 0.00 0.00 84 1010.9
20260905084556 74 346 0.0 1.0 0.00 0.00 0.00 84 1010.7
20260905083048 74 346 0.0 2.0 0.00 0.00 0.00 84 1010.8
20260905081546 74 346 0.0 4.0 0.00 0.00 0.00 85 1011.2
20260905080053 73 342 1.0 4.0 0.00 0.00 0.00 86 1011.4
20260905074545 73 336 0.0 3.0 0.00 0.00 0.00 87 1011.4
20260905073046 73 340 3.0 6.0 0.00 0.00 0.00 88 1011.8
20260905071540 73 334 0.0 3.0 0.00 0.00 0.00 89 1011.6
20260905070037 73 335 0.0 4.0 0.00 0.00 0.00 90 1012.3
20260905064534 73 328 2.0 5.0 0.00 0.00 0.00 89 1012.7
20260905063033 74 333 2.0 4.0 0.00 0.00 0.00 88 1012.9
20260905061533 74 332 0.0 3.0 0.00 0.00 0.00 88 1013.1
20260905060030 74 17 1.0 6.0 0.00 0.00 0.00 88 1013.3
20260905054527 73 334 3.0 9.0 0.00 0.00 0.00 89 1013.7
20260905053027 74 20 1.0 3.0 0.00 0.00 0.00 88 1013.6
20260905051533 74 334 1.0 3.0 0.00 0.00 0.00 87 1013.8
20260905050022 74 157 0.0 0.0 0.00 0.00 0.00 87 1013.9
20260905044521 75 157 0.0 1.0 0.00 0.00 0.00 87 1014.1
20260905043019 75 157 0.0 2.0 0.00 0.00 0.00 86 1014.4
20260905041518 75 146 1.0 2.0 0.00 0.00 0.00 86 1014.5